PIA123 OPPS-OPIS

Flight info

Callsign PIA123
Flight time 0h 19m
Altitude 13000
Route KALMI
Aircraft A20N/M-SDE2E3FGHIRWXY/LB1

Departure

Time 2026-04-25 18:21
Airport Bacha Khan International Airport (OPPS)

Arrival

Time 2026-04-25 18:41
Airport Islamabad International Airport (OPIS)
Time Latitude Longitude Altitude Speed Heading
2026-04-25 18:15 33.99074 71.51828 1200 ft 0 kts 140°
2026-04-25 18:17 33.99081 71.51821 1200 ft 6 kts 140°
2026-04-25 18:18 33.99128 71.51788 1200 ft 9 kts 189°
2026-04-25 18:18 33.99181 71.51804 1198 ft 6 kts 204°
2026-04-25 18:18 33.99110 71.51689 1202 ft 27 kts 266°
2026-04-25 18:18 33.99157 71.51469 1198 ft 29 kts 340°
2026-04-25 18:19 33.99379 71.51456 1198 ft 37 kts 349°
2026-04-25 18:19 33.99601 71.51258 1198 ft 43 kts 330°
2026-04-25 18:19 33.99878 71.51213 1197 ft 39 kts 359°
2026-04-25 18:19 34.00144 71.51245 1188 ft 38 kts 28°
2026-04-25 18:20 34.00218 71.51371 1186 ft 6 kts 108°
2026-04-25 18:20 34.00181 71.51387 1188 ft 11 kts 178°
2026-04-25 18:20 33.99771 71.51395 1199 ft 112 kts 182°
2026-04-25 18:20 33.99340 71.51444 1199 ft 31 kts 143°
2026-04-25 18:21 33.99330 71.51453 1199 ft 7 kts 141°
2026-04-25 18:21 33.99255 71.51482 1200 ft 54 kts 173°
2026-04-25 18:21 33.98537 71.51520 1217 ft 146 kts 176°
2026-04-25 18:21 33.97425 71.51615 1875 ft 165 kts 177°
2026-04-25 18:22 33.96259 71.51721 2788 ft 169 kts 177°
2026-04-25 18:22 33.95859 71.51756 3071 ft 173 kts 176°
2026-04-25 18:22 33.93678 71.51939 4085 ft 206 kts 176°
2026-04-25 18:22 33.92174 71.52067 4544 ft 229 kts 176°
2026-04-25 18:23 33.90501 71.52211 5021 ft 252 kts 176°
2026-04-25 18:23 33.88680 71.52368 5449 ft 273 kts 176°
2026-04-25 18:23 33.86707 71.52536 5736 ft 294 kts 176°
2026-04-25 18:23 33.84586 71.52718 5972 ft 314 kts 176°
2026-04-25 18:24 33.82374 71.52908 6231 ft 322 kts 176°
2026-04-25 18:24 33.80131 71.53103 6588 ft 322 kts 177°
2026-04-25 18:24 33.77911 71.53295 6696 ft 319 kts 177°
2026-04-25 18:24 33.75682 71.53552 6769 ft 327 kts 168°
2026-04-25 18:25 33.73593 71.54628 7086 ft 331 kts 145°
2026-04-25 18:25 33.71963 71.56550 7396 ft 334 kts 128°
2026-04-25 18:25 33.70561 71.58784 7707 ft 336 kts 125°
2026-04-25 18:25 33.69200 71.61084 8024 ft 339 kts 125°
2026-04-25 18:26 33.67820 71.63396 8300 ft 342 kts 126°
2026-04-25 18:26 33.66411 71.65701 8628 ft 343 kts 126°
2026-04-25 18:26 33.64973 71.68009 8880 ft 346 kts 127°
2026-04-25 18:26 33.63522 71.70316 9173 ft 347 kts 127°
2026-04-25 18:27 33.62058 71.72633 9436 ft 350 kts 127°
2026-04-25 18:27 33.60586 71.74960 9704 ft 351 kts 127°
2026-04-25 18:27 33.59101 71.77304 9917 ft 354 kts 127°
2026-04-25 18:27 33.57610 71.79657 10182 ft 354 kts 127°
2026-04-25 18:28 33.56115 71.82015 10429 ft 356 kts 127°
2026-04-25 18:28 33.54733 71.84475 10674 ft 356 kts 115°
2026-04-25 18:28 33.54039 71.87306 10912 ft 354 kts 93°
2026-04-25 18:29 33.54277 71.92843 12624 ft 317 kts 83°
2026-04-25 18:29 33.54425 71.95405 13742 ft 299 kts 83°
2026-04-25 18:30 33.54827 72.02380 15645 ft 275 kts 84°
2026-04-25 18:30 33.54842 72.04688 15818 ft 277 kts 88°
2026-04-25 18:30 33.54835 72.07002 15894 ft 278 kts 88°
2026-04-25 18:30 33.54828 72.09317 15901 ft 277 kts 88°
2026-04-25 18:31 33.54823 72.11628 15898 ft 278 kts 88°
2026-04-25 18:31 33.54818 72.13945 15898 ft 278 kts 88°
2026-04-25 18:31 33.54813 72.16259 15898 ft 278 kts 88°
2026-04-25 18:31 33.54807 72.18576 15898 ft 278 kts 88°
2026-04-25 18:32 33.54801 72.20890 15894 ft 278 kts 88°
2026-04-25 18:32 33.54794 72.23212 15891 ft 278 kts 88°
2026-04-25 18:32 33.54786 72.25535 15895 ft 278 kts 88°
2026-04-25 18:32 33.54778 72.27844 15839 ft 275 kts 88°
2026-04-25 18:33 33.54770 72.30131 15455 ft 273 kts 88°
2026-04-25 18:33 33.54762 72.32369 14859 ft 271 kts 88°
2026-04-25 18:33 33.54753 72.34626 14207 ft 270 kts 88°
2026-04-25 18:33 33.54744 72.36863 13556 ft 267 kts 88°
2026-04-25 18:34 33.54734 72.39090 12786 ft 263 kts 88°
2026-04-25 18:34 33.54723 72.41242 12028 ft 260 kts 87°
2026-04-25 18:34 33.54717 72.43398 11299 ft 257 kts 86°
2026-04-25 18:34 33.54729 72.45516 10615 ft 253 kts 86°
2026-04-25 18:35 33.54884 72.47589 9941 ft 246 kts 73°
2026-04-25 18:35 33.55269 72.49572 9279 ft 240 kts 73°
2026-04-25 18:35 33.55633 72.51478 8766 ft 231 kts 73°
2026-04-25 18:35 33.55977 72.53327 8256 ft 223 kts 74°
2026-04-25 18:36 33.56304 72.55123 7772 ft 218 kts 75°
2026-04-25 18:36 33.56614 72.56876 7291 ft 213 kts 76°
2026-04-25 18:36 33.56912 72.58607 6819 ft 209 kts 76°
2026-04-25 18:36 33.57197 72.60300 6359 ft 206 kts 77°
2026-04-25 18:37 33.57447 72.61980 5809 ft 206 kts 84°
2026-04-25 18:37 33.57441 72.63746 5034 ft 216 kts 93°
2026-04-25 18:37 33.57294 72.65427 4768 ft 189 kts 95°
2026-04-25 18:37 33.57145 72.66895 4605 ft 167 kts 95°
2026-04-25 18:38 33.57008 72.68201 4467 ft 151 kts 96°
2026-04-25 18:38 33.56844 72.69424 4143 ft 149 kts 97°
2026-04-25 18:38 33.56665 72.70632 3735 ft 148 kts 98°
2026-04-25 18:38 33.56481 72.71822 3428 ft 145 kts 97°
2026-04-25 18:39 33.56295 72.73014 3126 ft 145 kts 97°
2026-04-25 18:39 33.56109 72.74208 2850 ft 144 kts 97°
2026-04-25 18:39 33.55927 72.75378 2654 ft 142 kts 97°
2026-04-25 18:39 33.55749 72.76512 2468 ft 141 kts 98°
2026-04-25 18:40 33.55577 72.77615 2290 ft 140 kts 100°
2026-04-25 18:40 33.55400 72.78753 2102 ft 138 kts 101°
2026-04-25 18:40 33.55222 72.79883 1920 ft 138 kts 101°
2026-04-25 18:40 33.55056 72.80971 1773 ft 128 kts 101°
2026-04-25 18:41 33.54920 72.81821 1755 ft 64 kts 99°
2026-04-25 18:41 33.54847 72.82305 1752 ft 53 kts 101°
2026-04-25 18:41 33.54914 72.82417 1753 ft 16 kts
2026-04-25 18:41 33.55071 72.82448 1762 ft 28 kts
2026-04-25 18:42 33.55286 72.82504 1771 ft 35 kts 12°
2026-04-25 18:42 33.55371 72.82522 1771 ft 38 kts
2026-04-25 18:42 33.55467 72.82735 1772 ft 6 kts 98°
2026-04-25 18:42 33.55513 72.82826 1770 ft 20 kts 55°
2026-04-25 18:43 33.55587 72.82964 1770 ft 0 kts 91°
2026-04-25 18:43 33.55582 72.82966 1773 ft 2 kts 142°
2026-04-25 18:43 33.55520 72.83017 1770 ft 19 kts 142°
2026-04-25 18:43 33.55487 72.83046 1771 ft 0 kts 145°